User: anonymous   Login
Location: Trois-Rivi�res
(46.3500°N, 72.5500°W)
Time: 00:33:30
(UTC-04:00)
Language:

Cosmos 1544 - Orbit

View from above orbital plane
View from above orbital plane
View from above satellite
View from above satellite

Ground track
Ground track

The orbit data is extracted from the following two-line orbital elements,

1 14819U 84027A   16207.84029840  .00001997  00000-0  79186-4 0  9996
2 14819  82.4854 355.4652 0016267 106.5900 253.7125 15.24669987766066
Epoch (UTC): 25 July 2016 20:10:01
Eccentricity: 0.0016267
inclination: 82.4854°
perigee height: 480 km
apogee height: 503 km
right ascension of ascending node: 355.4652°
argument of perigee: 106.5900°
revolutions per day: 15.24669987
mean anomaly at epoch: 253.7125°
orbit number at epoch: 76606

The dashed part of the orbit path shows where the satellite is in the earth's shadow,  

DLR